Regional Weather Roundup
Issued by NWS Raleigh/Durham, NC

Home | Current Version | Previous Version | Text Only | Print | Product List | Glossary On
Versions: 1 2 3 4 5 6 7 8 9 10 11 12 13 14 15 16 17 18 19 20 21 22 23 24 25 26 27 28 29 30 31 32 33 34 35 36 37 38 39 40 41 42 43 44 45 46 47 48 49 50
000
ASUS42 KRAH 091010
RWRRAH
NORTH CAROLINA WEATHER ROUNDUP
NATIONAL WEATHER SERVICE RALEIGH NC
500 AM EST TUE FEB 09 2016

NOTE: "FAIR" INDICATES FEW OR NO CLOUDS BELOW 12,000 FEET WITH NO
SIGNIFICANT WEATHER AND/OR OBSTRUCTIONS TO VISIBILITY.

NCZ001-053-055-056-065-067-091100-
WESTERN NORTH CAROLINA

CITY           SKY/WX    TMP DP  RH WIND       PRES   REMARKS
ASHEVILLE      FLURRIES  26  19  74 N15       29.65R WCI  14
JEFFERSON      CLOUDY    23  14  69 W17G25    29.53S WCI   9
MORGANTON      MOCLDY    32  14  48 W7        29.69R WCI  26
HICKORY        CLOUDY    32  15  49 W9        29.63S WCI  24
RUTHERFORDTON  CLOUDY    31  17  54 W6        29.67S WCI  25
MOUNT AIRY     CLOUDY    34  28  79 CALM      29.63R
BOONE          FLURRIES  21  15  76 NW8G17    29.57R WCI  12
$$

NCZ021-022-025-041-071-084-088-091100-
CENTRAL NORTH CAROLINA

CITY           SKY/WX    TMP DP  RH WIND       PRES   REMARKS
CHARLOTTE      PTCLDY    35  22  58 W7        29.66R WCI  29
GREENSBORO     CLOUDY    34  27  75 W6        29.59F WCI  29
WINSTON-SALEM  CLOUDY    34  25  69 W3        29.61F
RALEIGH-DURHAM CLOUDY    36  33  89 CALM      29.61R
FORT BRAGG     CLOUDY    39  33  80 W8        29.61S WCI  33
FAYETTEVILLE   CLOUDY    37  35  92 W6        29.63R WCI  32
BURLINGTON     CLOUDY    36  27  69 W7        29.61R WCI  30
LAURINBURG     CLOUDY    36  34  92 W7        29.66R WCI  30
$$

NCZ011-015-027-028-043-044-047-080-103-091100-
NORTHEASTERN NORTH CAROLINA

CITY           SKY/WX    TMP DP  RH WIND       PRES   REMARKS
ROCKY MT-WILSO CLOUDY    37  35  92 CALM      29.60R
GREENVILLE     CLOUDY    37  36  93 CALM      29.64S FOG
WASHINGTON     MOCLDY    38  37  95 CALM      29.60R
ELIZABETH CITY MOCLDY    39  38  96 W8        29.56F WCI  33
MANTEO         CLOUDY    41  40  96 W9        29.55S
CAPE HATTERAS  CLOUDY    43  39  86 W10G18    29.58R
$$

NCZ078-087-090-091-093-098-101-091100-
SOUTHEASTERN NORTH CAROLINA

CITY           SKY/WX    TMP DP  RH WIND       PRES   REMARKS
LUMBERTON      CLOUDY    38  35  89 W10       29.65R WCI  31
GOLDSBORO      MOCLDY    37  37 100 SW2       29.60R
KINSTON        CLOUDY    38  38  99 CALM      29.62R FOG
KENANSVILLE    CLEAR     37  37 100 CALM      29.62S FOG
NEW BERN       PTCLDY    39  37  92 SW6       29.61S WCI  35
CHERRY POINT   CLEAR     41  38  89 W9        29.62R
BEAUFORT       CLEAR     42  39  89 W8        29.61R
JACKSONVILLE   CLEAR     39  37  92 W7        29.61S WCI  34
WILMINGTON     PTCLDY    41  37  86 W10       29.64R
$$




USA.gov is the U.S. government's official web portal to all federal, state and local government web resources and services.